, SD

(GMT )
Rapid City

Weather History for KRAP - March, 2013

Change the Weather History Date:

Friday, March 22, 2013

  Actual Average Record
Temperature  
Mean Temperature 24 °F 37 °F  
Max Temperature 37 °F 50 °F 77 °F (2009)
Min Temperature 11 °F 25 °F -4 °F (2002)
Degree Days  
Heating Degree Days 41 28  
Month to date heating degree days 671 682  
Since 1 July heating degree days 5660 5892  
Cooling Degree Days 0 0  
Month to date cooling degree days 0 0  
Year to date cooling degree days 0 0  
Moisture  
Dew Point 22 °F    
Average Humidity 83    
Maximum Humidity 96    
Minimum Humidity 70    
Precipitation  
Precipitation 0.27 in 0.03 in 0.69 in (1966)
Month to date precipitation 0.79 0.62  
Year to date precipitation 1.40 1.36  
Snow  
Snow 4.30 in 0.30 in 6.70 in (1966)
Month to date snowfall 12.4 6.2  
Since 1 July snowfall 32.8 29.6  
Snow Depth 1.00 in    
Sea Level Pressure  
Sea Level Pressure 29.91 in    
Wind  
Wind Speed 10 mph (North)    
Max Wind Speed 30 mph    
Max Gust Speed 36 mph    
Visibility 3 miles    
Events Fog , Snow    
T = Trace of Precipitation, MM = Missing Value Source: NWS Daily Summary

Daily Weather History Graph

Daily Weather History Graph

Search for Another Location

Airport or City:

Trip Planner

Search our weather history database for the weather conditions in past years. The results will help you decide how hot, cold, wet, or windy it might be!

Date:

Astronomy

Mar. 22, 2013 Rise Set
Actual Time 6:51 AM MDT 7:07 PM MDT
Civil Twilight 6:22 AM MDT 7:36 PM MDT
Nautical Twilight 5:48 AM MDT 8:10 PM MDT
Astronomical Twilight 5:13 AM MDT 8:45 PM MDT
Moon 2:28 PM MDT (3/22) 4:01 AM MDT (3/22)
Length of Visible Light 13h 13m
Length of Day
12h 16m
Waxing Gibbous, 78% of the Moon is Illuminated
Mar 22
Waxing Gibbous
Mar 27
Full
Apr 2
Last Quarter
Apr 10
New
Apr 18
First Quarter

Hourly Weather History & Observations

Time (MDT) Temp. Windchill Dew Point Humidity Pressure Visibility Wind Dir Wind Speed Gust Speed Precip Events Conditions
12:32 AM 24.8 °F 19.1 °F 21.2 °F 86% 29.82 in 3.0 mi NE 4.6 mph - 0.00 in Snow Light Snow
12:52 AM 24.1 °F 19.7 °F 21.9 °F 91% 29.90 in 4.0 mi North 3.5 mph - 0.00 in Snow Light Snow
1:00 AM 24.8 °F 19.1 °F 21.2 °F 86% 29.82 in 4.0 mi North 4.6 mph - 0.00 in Snow Light Snow
1:03 AM 24.8 °F 20.5 °F 21.2 °F 86% 29.82 in 4.0 mi North 3.5 mph - 0.00 in Snow Light Snow
1:29 AM 24.8 °F 20.5 °F 21.2 °F 86% 29.82 in 4.0 mi North 3.5 mph - 0.00 in Snow Light Snow
1:52 AM 23.0 °F - 21.9 °F 96% 29.90 in 5.0 mi Calm Calm - 0.00 in   Overcast
2:27 AM 21.2 °F - 19.4 °F 93% 29.82 in 5.0 mi Calm Calm - N/A   Scattered Clouds
2:52 AM 21.0 °F - 19.0 °F 92% 29.90 in 2.5 mi Calm Calm - N/A   Clear
2:58 AM 19.4 °F - 19.4 °F 100% 29.82 in 0.8 mi Calm Calm - N/A   Clear
3:02 AM 17.6 °F - 17.6 °F 100% 29.82 in 0.2 mi Calm Calm - N/A Fog Light Freezing Fog
3:38 AM 10.4 °F - 10.4 °F 100% 29.81 in 0.2 mi Calm Calm - N/A Fog Light Freezing Fog
3:52 AM 14.0 °F - 12.0 °F 92% 29.91 in 0.2 mi Calm Calm - N/A Fog Light Freezing Fog
4:52 AM 15.1 °F - 12.0 °F 88% 29.91 in 0.2 mi Calm Calm - N/A Fog Light Freezing Fog
5:52 AM 19.9 °F 14.9 °F 15.1 °F 81% 29.91 in 0.2 mi NNE 3.5 mph - N/A   Haze
6:43 AM 12.2 °F 6.1 °F 8.6 °F 85% 29.80 in 0.5 mi NNW 3.5 mph - N/A Fog Light Freezing Fog
6:49 AM 12.2 °F - 8.6 °F 85% 29.80 in 1.0 mi Calm Calm - N/A Fog Light Freezing Fog
6:52 AM 12.0 °F - 8.1 °F 84% 29.94 in 2.5 mi Calm Calm - N/A Fog Light Freezing Fog
6:59 AM 12.2 °F - 8.6 °F 85% 29.81 in 0.2 mi Calm Calm - N/A Fog Light Freezing Fog
7:41 AM 17.6 °F 12.3 °F 14.0 °F 86% 29.80 in 0.5 mi East 3.5 mph - N/A Fog Light Freezing Fog
7:52 AM 19.0 °F 12.3 °F 15.1 °F 85% 29.93 in 1.0 mi ENE 4.6 mph - N/A Fog Light Freezing Fog
8:00 AM 19.4 °F 14.3 °F 15.8 °F 86% 29.80 in 0.5 mi East 3.5 mph - N/A Fog Light Freezing Fog
8:27 AM 21.2 °F - 17.6 °F 86% 29.81 in 3.0 mi Calm Calm - N/A Fog Light Freezing Fog
8:40 AM 23.0 °F - 19.4 °F 86% 29.81 in 5.0 mi Calm Calm - N/A   Scattered Clouds
8:52 AM 21.9 °F 17.2 °F 17.1 °F 82% 29.93 in 6.0 mi East 3.5 mph - N/A   Haze
9:10 AM 21.2 °F 14.9 °F 17.6 °F 86% 29.81 in 0.2 mi SE 4.6 mph - N/A Fog Light Freezing Fog
9:21 AM 21.2 °F 13.6 °F 17.6 °F 86% 29.82 in 0.2 mi SE 5.8 mph - N/A Fog Light Freezing Fog
9:52 AM 23.0 °F 18.4 °F 19.0 °F 85% 29.94 in 0.2 mi ESE 3.5 mph - N/A Fog Light Freezing Fog
10:28 AM 24.8 °F - 19.4 °F 80% 29.82 in 1.0 mi Calm Calm - N/A   Mist
10:36 AM 26.6 °F 22.6 °F 21.2 °F 80% 29.82 in 4.0 mi NE 3.5 mph - N/A   Haze
10:52 AM 27.0 °F 23.0 °F 23.0 °F 85% 29.93 in 7.0 mi ESE 3.5 mph - N/A   Clear
11:08 AM 28.4 °F 24.6 °F 24.8 °F 86% 29.82 in 2.0 mi SSE 3.5 mph - N/A   Partly Cloudy
11:16 AM 28.4 °F 24.6 °F 24.8 °F 86% 29.83 in 1.0 mi South 3.5 mph - N/A   Mist
11:39 AM 30.2 °F 26.7 °F 26.6 °F 86% 29.83 in 3.0 mi ESE 3.5 mph - N/A   Scattered Clouds
11:52 AM 32.0 °F 26.4 °F 28.0 °F 85% 29.93 in 4.0 mi SE 5.8 mph - N/A   Mostly Cloudy
12:39 PM 33.8 °F 25.8 °F 28.4 °F 81% 29.83 in 10.0 mi East 10.4 mph - N/A   Partly Cloudy
12:52 PM 34.0 °F 27.2 °F 28.0 °F 79% 29.93 in 10.0 mi ENE 8.1 mph - N/A   Scattered Clouds
1:52 PM 36.0 °F 30.3 °F 28.0 °F 73% 29.92 in 10.0 mi Variable 6.9 mph - N/A   Overcast
2:52 PM 36.0 °F 30.3 °F 26.1 °F 67% 29.92 in 10.0 mi Variable 6.9 mph - N/A   Overcast
3:43 PM 32.0 °F 25.6 °F 26.6 °F 80% 29.83 in 2.0 mi NNW 6.9 mph - 0.00 in Snow Light Snow
3:52 PM 32.0 °F 25.6 °F 28.0 °F 85% 29.96 in 1.8 mi NNW 6.9 mph - 0.00 in Snow Light Snow
4:00 PM 30.2 °F 23.4 °F 28.4 °F 93% 29.83 in 0.8 mi NW 6.9 mph - 0.00 in Snow Light Snow
4:09 PM 30.2 °F 24.3 °F 28.4 °F 93% 29.84 in 0.5 mi NNW 5.8 mph - 0.01 in Fog , Snow Snow
4:16 PM 30.2 °F 23.4 °F 28.4 °F 93% 29.83 in 0.2 mi North 6.9 mph - 0.02 in Fog , Snow Heavy Snow
4:20 PM 30.2 °F 24.3 °F 28.4 °F 93% 29.83 in 0.5 mi North 5.8 mph - 0.03 in Fog , Snow Snow
4:44 PM 30.2 °F 22.6 °F 28.4 °F 93% 29.84 in 0.8 mi North 8.1 mph - 0.05 in Snow Light Snow
4:52 PM 30.0 °F 23.2 °F 28.0 °F 92% 29.98 in 0.5 mi NNW 6.9 mph - 0.06 in Fog , Snow Snow
5:09 PM 30.2 °F 18.9 °F 28.4 °F 93% 29.85 in 0.2 mi NNW 16.1 mph 19.6 mph 0.03 in Fog , Snow Heavy Snow
5:30 PM 30.2 °F 17.4 °F 26.6 °F 86% 29.85 in 0.5 mi NNW 20.7 mph 29.9 mph 0.05 in Fog , Snow Snow
5:48 PM 30.2 °F 16.5 °F 28.4 °F 93% 29.86 in 0.2 mi NNW 24.2 mph - 0.05 in Fog , Snow Heavy Snow
5:52 PM 30.0 °F 16.6 °F 28.0 °F 92% 29.98 in 0.2 mi NNW 23.0 mph 31.1 mph 0.06 in Fog , Snow Heavy Snow
6:35 PM 28.4 °F 13.0 °F 26.6 °F 93% 29.89 in 0.2 mi North 28.8 mph 35.7 mph 0.04 in Fog Light Freezing Fog
6:52 PM 28.0 °F 13.6 °F 26.1 °F 92% 30.05 in 0.2 mi North 24.2 mph - 0.07 in Fog Light Freezing Fog
7:07 PM 28.4 °F 14.4 °F 26.6 °F 93% 29.91 in 0.2 mi North 23.0 mph - 0.04 in Fog Light Freezing Fog
7:14 PM 28.4 °F 14.7 °F 26.6 °F 93% 29.91 in 0.5 mi North 21.9 mph - 0.05 in Fog Light Freezing Fog
7:25 PM 28.4 °F 15.4 °F 26.6 °F 93% 29.92 in 1.0 mi North 19.6 mph - 0.05 in   Mist
7:35 PM 28.4 °F 15.4 °F 26.6 °F 93% 29.93 in 0.8 mi North 19.6 mph - 0.05 in   Mist
7:42 PM 28.4 °F 15.4 °F 26.6 °F 93% 29.93 in 0.8 mi North 19.6 mph - 0.06 in   Mist
7:52 PM 28.0 °F 14.6 °F 26.1 °F 92% 30.06 in 0.8 mi North 20.7 mph 25.3 mph 0.07 in   Overcast
7:56 PM 28.4 °F 14.4 °F 26.6 °F 93% 29.93 in 1.0 mi North 23.0 mph - N/A   Overcast
8:14 PM 26.6 °F 14.3 °F 24.8 °F 93% 29.95 in 1.8 mi North 16.1 mph - N/A   Overcast
8:25 PM 26.6 °F 13.8 °F 24.8 °F 93% 29.96 in 2.0 mi North 17.3 mph - 0.01 in   Overcast
8:34 PM 26.6 °F 11.4 °F 24.8 °F 93% 29.96 in 1.8 mi North 25.3 mph 28.8 mph 0.01 in   Overcast
8:39 PM 26.6 °F 11.7 °F 24.8 °F 93% 29.96 in 2.0 mi North 24.2 mph - 0.01 in   Overcast
8:46 PM 26.6 °F 12.4 °F 24.8 °F 93% 29.97 in 3.0 mi North 21.9 mph - 0.01 in   Overcast
8:52 PM 26.1 °F 11.3 °F 23.0 °F 88% 30.10 in 3.0 mi North 23.0 mph - 0.01 in   Overcast
9:28 PM 24.8 °F 9.3 °F 21.2 °F 86% 29.99 in 3.0 mi North 24.2 mph - N/A   Overcast
9:52 PM 23.0 °F 7.6 °F 19.9 °F 88% 30.13 in 4.0 mi North 21.9 mph - N/A   Overcast
9:56 PM 23.0 °F 8.0 °F 19.4 °F 86% 30.00 in 4.0 mi North 20.7 mph - N/A   Overcast
10:10 PM 23.0 °F 7.6 °F 19.4 °F 86% 30.00 in 4.0 mi North 21.9 mph - N/A   Overcast
10:48 PM 21.2 °F 4.5 °F 19.4 °F 93% 30.02 in 4.0 mi NNW 24.2 mph - N/A   Overcast
10:52 PM 21.0 °F 4.3 °F 17.1 °F 85% 30.15 in 4.0 mi NNW 24.2 mph - N/A   Overcast
11:01 PM 21.2 °F 4.5 °F 17.6 °F 86% 30.02 in 5.0 mi North 24.2 mph - N/A   Overcast
11:52 PM 19.9 °F 5.2 °F 17.1 °F 89% 30.17 in 10.0 mi North 17.3 mph - N/A   Overcast